Dean International
Flight School

Career Spotlight

Mika

Mika

Congratulations to Mika from Khazakstan. She recently sent us this photo of her flying an Airbus airliner.

More...
Mika's Success Story
close

Congratulations to Mika from Khazakstan. She recently sent us this photo of her flying an Airbus airliner.

Mario

Mario

My dreams could not have been realized if I wouldn't have been part of the Dean International family.

More...
Mario's Success Story
close

"My dreams could not have been realized if I wouldn't have been part of the Dean International family. Thank you Robert, thanks to all my co-workers, and thanks to all of my students!"

Fernando

Fernando

I am now working as a First Officer at TACA and am enjoying every moment of it.

More...
Fernando's Success Story
close

"Will never forget my time of flight training at Dean International. I am now working as a First Officer at TACA and am enjoying every moment of it."

Alvaro

Alvaro

Because of the flight time I was able to built while instructing, I got the experience needed to apply to an airline in Colombia.

More...
Alvaro's Success Story
close

Dean alumnus Alvaro Londoño currently flies with Tampa Cargo. He says of his experience at Dean: "I want to take this opportunity to thank you for giving me the chance to build my experience and expand my knowledge in Dean International. Because of the flight time I was able to built flight instructing, I got the experience needed to apply to an airline in Colombia."

Ralph

Ralph

Every Aruban student of Dean International has made it into Tiara Air Aruba, that is very nice.

More...
Ralph's Success Story
close

"Next to me is my Co-Pilot, Elison. This picture was taken on our first flight together, which was almost exactly 5 years after I finished at Dean International. [...] Every Aruban student of Dean International has made it into Tiara Air Aruba. [...] The future looks bright here in Aruba."

Rohaan

Rohaan

The [..] staff will all work diligently to help you finish your certificates as safely and efficiently as possible.

More...
Rohaan's Success Story
close

After receiving very hard times from other flight schools [...], I came to Dean International where Robert Dean personally sat down with me and gave me a financial and chronological look into how much remained to finish my private pilot certificate. Through his hard efforts as an instructor and mentor, I was able to finish my private pilot certificate within one week.

Welcome to Dean International

In over two decades, Dean International has educated over 7,000 pilots from all over the world, including over 1,000 students from India alone. By offering a great training experience, a friendly service staff, an ample variety of aircraft, and by improving constantly, we have become one of the largest, most prestigious FAA 141-approved flight schools in North America. Located in Miami, Florida, USA, our flight school offers an ideal location for year-round, "learn to fly" weather, flight training. Dean International is not only well-equipped to provide services to professional trainees but also caters to General Aviation renters. Visit or contact our headquarters at Kendall-Tamiami Executive Airport located in Miami, FL today to learn more about us, or simply read more about our programs if you are an international student interested in joining our school.

Local Airport Information
TAF FOR KTMB (Issued: Tue, September 30th 2014 9:09 PM UTC)
TAF
      AMD KTMB 302108Z 3021/0118 28007KT P6SM SCT035 SCT250
      FM010200 VRB02KT P6SM FEW025 SCT250
     
METAR FOR KTMB (Issued: Wed, October 1st 2014 2:53 AM UTC):
KTMB 010253Z AUTO 22004KT 10SM CLR 27/24 A2990 RMK AO2 SLP124 T02720244 51016

This weather information is provided by the National Weather Service.
It is automatically refreshed every three minutes.
TAF FOR KHST (Issued: Wed, October 1st 2014 12:07 AM UTC)
TAF KHST 0100/0206 VRB06KT 9999 FEW030 QNH2980INS
      BECMG 0112/0113 22009KT 9999 SCT040 QNH2990INS
      TEMPO 0117/0122 20015G20KT 8000 -TSRA BKN030CB TX31/0120Z TN23/0111Z
     
METAR FOR KHST (Issued: Wed, October 1st 2014 3:43 AM UTC):
KHST 010343Z AUTO 21005KT 10SM CLR 25/24 A2990 RMK AO2

This weather information is provided by the National Weather Service.
It is automatically refreshed every three minutes.
TAF FOR KOPF (Issued: Tue, September 30th 2014 9:09 PM UTC)
TAF
      AMD KOPF 302106Z 3021/0118 27007KT P6SM VCSH SCT030 SCT250
      FM010200 VRB02KT P6SM FEW025 SCT250
     
METAR FOR KOPF (Issued: Wed, October 1st 2014 2:53 AM UTC):
KOPF 010253Z AUTO 27004KT 10SM CLR 27/24 A2989 RMK AO2 SLP123 T02720244 51014

This weather information is provided by the National Weather Service.
It is automatically refreshed every three minutes.
TAF FOR KMIA (Issued: Tue, September 30th 2014 9:12 PM UTC)
TAF
      AMD KMIA 302106Z 3021/0118 26008KT P6SM VCSH SCT030 BKN250
      FM010200 VRB02KT P6SM FEW025 SCT250
     
METAR FOR KMIA (Issued: Wed, October 1st 2014 2:53 AM UTC):
KMIA 010253Z 24005KT 10SM BKN250 28/24 A2990 RMK AO2 SLP123 T02780244 51014

This weather information is provided by the National Weather Service.
It is automatically refreshed every three minutes.
Design by Ariel Llizo
© Dean International Inc. 2012